Regional Weather Roundup
Issued by NWS

Home | Current Version | Previous Version | Graphics & Text | Print | Product List | Glossary On
Versions: 1 2 3 4 5 6 7 8 9 10 11 12 13 14 15 16 17 18 19 20 21 22 23 24 25 26 27 28 29 30 31 32 33 34 35 36 37 38 39 40 41 42 43 44 45 46 47 48 49 50
424
ASUS43 KDTX 250501
RWRMI
MICHIGAN HOURLY REGIONAL WEATHER ROUNDUP
NATIONAL WEATHER SERVICE DETROIT/PONTIAC MI
100 AM EDT THU AUG 25 2016

NOTE: "FAIR" INDICATES FEW OR NO CLOUDS BELOW 12,000 FEET WITH NO
SIGNIFICANT WEATHER AND/OR OBSTRUCTION TO VISIBILITY.

MIZ047>049-052>055-059>063-066>070-074>076-081>083-250600-
SOUTHEAST LOWER MICHIGAN

CITY           SKY/WX    TMP DP  RH WIND       PRES   REMARKS
ADRIAN         CLEAR     70  70 100 W7        29.98R
ALMA           CLOUDY    73  73 100 W10       29.94S FOG
ANN ARBOR      CLEAR     70  70 100 W3        29.95S FOG
BAD AXE        CLEAR     71  70  98 SW6       29.91F
CARO           CLEAR     72  71  97 SW5       29.91F
DETROIT CITY   PTCLDY    74  74 100 SW3       29.94S
DETROIT        CLOUDY    74  73  97 SW7       29.96R FOG
FLINT          CLEAR     74  70  87 SW5       29.94S
GROSSE ILE     PTCLDY    74  72  92 SW3       29.95R
HILLSDALE      CLEAR     71  69  93 SW5       29.99R
HOWELL         PTCLDY    72  71  98 SW3       29.96R FOG

CITY           SKY/WX    TMP DP  RH WIND       PRES   REMARKS
JACKSON        PTCLDY    72  72 100 SW7       29.97R
LAMBERTVILLE   CLEAR     73  70  92 W3        29.98R
LANSING        PTCLDY    72  70  93 SW5       29.95F
LAPEER         CLOUDY    72  70  96 S5        29.94S
MASON          PTCLDY    72  70  94 CALM      29.96S
MONROE         CLEAR     72  71  97 W6        29.95R
MT. CLEMENS    FOG       72  72 100 SW3       29.92S VSB 1/2
PONTIAC        CLOUDY    73  72  96 SW5       29.95R
PORT HURON     FOG       70  70 100 S3        29.94S VSB 1
TRI CITIES     CLEAR     72  71  97 SW7       29.92F
MIDLAND        MOCLDY    72  70  95 W5        29.91S
TROY           PTCLDY    75  73  92 SW3       29.97R
SAGINAW HB     CLEAR     72  70  94 SW6       29.91F
$$
MIZ043>046-050>051-056>058-064>065-071>073-077>080-250600-
SOUTHWEST LOWER MICHIGAN

CITY           SKY/WX    TMP DP  RH WIND       PRES   REMARKS
BATTLE CREEK   CLEAR     70  70 100 SW6       29.98R
BENTON HARBOR  PTCLDY    74  71  91 S5        29.96S
BIG RAPIDS     CLOUDY    74  72  92 W3        29.93F
COLDWATER      CLEAR     71  71  99 SW6       29.99R
FREMONT        MOCLDY    71  71  98 CALM      29.93F FOG
HOLLAND        PTCLDY    71  70  96 CALM      29.95S FOG
GRAND RAPIDS   MOCLDY    74  70  87 SW5       29.94F
IONIA          CLOUDY    71  69  93 SW5       29.94S
KALAMAZOO      PTCLDY    72  69  90 SW5       29.97R
LUDINGTON      CLEAR     70  70 100 CALM      29.92S FOG
MARSHALL       CLEAR     72  72 100 SW5       29.97R
MUSKEGON       MOCLDY    75  73  93 SW7       29.93F
SOUTH HAVEN    CLOUDY    74  73  96 S3        29.96S
$$
MIZ016>042-250600-
NORTHERN LOWER MICHIGAN

CITY           SKY/WX    TMP DP  RH WIND       PRES   REMARKS
ALPENA         CLEAR     73  67  81 W5        29.88S
BEAVER ISLAND  PTCLDY    69  69  98 SW3       29.88S
BELLAIRE       CLOUDY    73  69  88 SW3       29.90S
CADILLAC       CLEAR     69  67  94 CALM      29.94S
CHARLEVOIX     PTCLDY    73  69  88 SW9       29.91S
FRANKFORT      PTCLDY    70  68  93 CALM      29.90S FOG
GAYLORD        MOCLDY    71  67  87 W8        29.92S
GRAYLING       PTCLDY    70  68  94 W5        29.93S
HARBOR SPRINGS CLOUDY    73  70  91 W5        29.88S
HOUGHTON LAKE  PTCLDY    71  68  90 SW6       29.93F
MANISTEE       FOG       67  67 100 CALM      29.91F VSB 1/4
OSCODA         PTCLDY    70  70  99 CALM      29.89S
PELLSTON       MOCLDY    72  68  87 W9        29.88S
ROGERS CITY    CLOUDY    74  68  81 W6        29.88S
TRAVERSE CITY  CLOUDY    73  70  90 CALM      29.89F
$$
MIZ007>008-015-250600-
EASTERN UPPER MICHIGAN

CITY           SKY/WX    TMP DP  RH WIND       PRES   REMARKS
KINROSS        CLOUDY    68  67  96 W6        29.86S
MACKINAC ISLAN CLOUDY    70  70 100 W7        29.87S
NEWBERRY       FOG       65  64  97 SW3       29.86F VSB 1/2
S. S. MARIE    CLOUDY    69  68  96 W6        29.84S
$$
MIZ004>006-011>014-085-250600-
CENTRAL UPPER MICHIGAN

CITY           SKY/WX    TMP DP  RH WIND       PRES   REMARKS
MANISTIQUE     FOG       67  64  92 CALM      29.86S VSB 1/2
ESCANABA       CLEAR     67  66  97 W7        29.87F
MENOMINEE      PTCLDY   N/A N/A N/A W5        29.91S
SAWYER-GWINN   CLEAR     65  64  93 SW5       29.89S
$$
MIZ001>003-009>011-084-250600-
WESTERN UPPER MICHIGAN

CITY           SKY/WX    TMP DP  RH WIND       PRES   REMARKS
IRON MOUNTAIN  CLEAR     67  62  84 W5        29.90F
HOUGHTON       PTCLDY    68  58  70 W12       29.85S
COPPER HARBOR    N/A     71  61  70 VRB6      29.80S
IRONWOOD       PTCLDY    64  57  78 SW9       29.93S
$$

ABBREVIATIONS USED IN REMARKS
   TC - TEMPERATURE IN CELSIUS
  WCI - WIND CHILL INDEX
   HX - HEAT INDEX
  VSB - VISIBILITY





USA.gov is the U.S. government's official web portal to all federal, state and local government web resources and services.